DELTA 1 DEB, 7849

Orbit data source: Space-Track

DELTA 1 DEB, 7849 is space debris in SSO originally from a launch on Sun, 23 Jul 1972 UTC launched from the Air Force Western Test Range (AFWTR). Debris objects in space refer to the collection of defunct objects orbiting the Earth. Examples of debris include non-operational satellites, rocket bodies, and fragments generated from explosions, collisions, or faulty payload assembly.

Loading next visibility...
Identifier
7849, 1972-058V
Orbit
SSO
Country
Flag of USUS
Related business
Manufacturer
Unknown
Mission
Spacecraft
Bus & Motor
Unknown
Mass
Unknown
Launch date (UTC)
1972-07-23 (53 years ago)
Launch vehicle
Unknown
Launch site
Air Force Western Test Range (AFWTR)
Object type
Payload
Rocket body
Debris
Shape & HBR
Unknown shape, 0.2 m
Radar Cross Section
Medium (>0.1 m² and <1 m²)

Expand to show TLE details & history
Last TLE update: 15 hours ago

TLE from 15 hours ago
0 DELTA 1 DEB
1 07849U 72058V   25351.76465618  .00001548  00000-0  66102-3 0  9995
2 07849  98.0615  91.0795 0320696 212.4034 145.7082 14.02156116527785
Epoch: 2025-12-17T18:21Z
TLE epoch observation values (Epoch: 2025-12-17T18:21:06.293Z)
Latitude
-0.00002°
Longitude
89.17345°
Altitude
1,084.041 km
Speed
7.212 km/s
True Right ascension
06h 04m 19s
True Declination
0° 00' 00"
Sunlit
Object was in full shadow at epoch
Visualization orbit readout
Latitude
Unknown
Longitude
Unknown
Altitude
Unknown
Speed
Unknown
Apparent Right ascension
Unknown
Apparent Declination
Unknown
Sunlit
N/A
Visualization observer readout
Local Sidereal Time
08:05:30
Azimuth
Unknown
Elevation
Unknown
Doppler factor
Unknown
Orbital elements
Apogee altitude
1,116.364 km
Perigee altitude
650.61 km
Semi-major axis
7,261.624 km
Eccentricity
0.03207
Inclination
98.0615°
RAAN
91.0795°
Arg. of periapsis
212.4034°
True anomaly
147.71181°
Mean anomaly
145.7082°
Eccentric anomaly
146.71656°
Mean motion
3.50746 °/min
Orbital period
102.64 mins
BSTAR
0.00066102
Loading maneuver chart data...
Computing Atmospheric mass density...
Loading historical data...
Loading historical data...
Loading historical data...
Loading historical data...
Loading historical data...
Loading historical data...
Loading historical data...

Documentation

Showing up to 5 results
|